Find Starlink 37567

NORAD ID: 68903 Int'l Des: 2026-097 Owner: SPXS Country: US Constellation: starlink operational
LEOCIRCULARRETROGRADE

現在のビュー

3D地球を読み込み中...

About Starlink 37567

Starlink 37567 (NORAD 68903) is a starlink constellation satellite (v2 mini) launched Apr 30, 2026 by SPXS of US. It operates in LEO, CIRCULAR, RETROGRADE orbit with a mass of 575.00 kg.

Starlink 37567について

説明を読み込み中...

次回通過

Passes for default location (London). Set your location on the main map for personalized predictions.

高度履歴

Loading altitude history...

軌道要素

1 68903U 26097J 26170.07806100 .00007033 00000-0 22000-3 0 9998
2 68903 97.2850 5.5274 0001452 94.8289 265.3120 15.33442843 7771
Epoch: Jun 19, 2026 • Age: 21 hours

現在のステータス

高度 471.2 km
速度 7.63 km/s
衛星直下点 -12.38°S, 69.42°W
打ち上げ日 Apr 30, 2026
運用期間 0.1 years
タイプ internet

技術仕様

分類 Payload
質量 575.00 kg
乾燥質量 530.00 kg
総質量 575.00 kg
長さ 0.30 m
直径 4.10 m
スパン 29.00 m
形状 Box + pan
製造者 SPXS
バスタイプ Starlink V2MO
フェーズステータス In Orbit
所有者/国 SPXS/US

Most Searched